Kezdőlap
METAR-TAF:

METAR-TAF

Repülőterek :

Benson, Minnesota, Amerikai Egyesült Államok

földrajzi szélesség: 45-19N, földrajzi hosszúság: 095-39W, magasság: 317 m

Jelenlegi meteorológiai megfigyelések

A jelentés 23 perccel ezelõtt készült, 12:35 UTC
Délkeleti szél 6 kt
Hőmérséklet 23°C
Páratartalom 89%
Légköri nyomás 1014 hPa
Látótávolság: 16.1 km
Szórványos felhőzet 900 lábon

METAR: KBBB 281235Z AUTO 13006KT 10SM SCT009 23/21 A2995 RMK AO2 P0001

Idő: 07:58 (12:58 UTC)


TAF: hiányzik

Meteorológiai megfigyelések és előrejelzések több, mint 4000 repülőtéren (METAR és TAF jelentéseket).

A térképen piros és sárga pontok jelzik az elérhető meteorológiai állomásokat.

Mozgassa az egeret a pont fölött, hogy megjelenjen az állomás neve.

Azután kattintson az időjárási megfigyelések és előrejelzések megtekintéséhez.

A térkép megváltoztatása: kattintson a fekete keresztel jelölt zöld gombra ráközelítéshez, a vonallal jelölt zöld gombra távolításhoz, vagy a zöld nyilakra a szomszédos térképek eléréséhez.


METAR-TAF: